Regional Weather Roundup
Issued by NWS

Home | Current Version | Previous Version | Graphics & Text | Print | Product List | Glossary On
Versions: 1 2 3 4 5 6 7 8 9 10 11 12 13 14 15 16 17 18 19 20 21 22 23 24 25 26 27 28 29 30 31 32 33 34 35 36 37 38 39 40 41 42 43 44 45 46 47 48 49 50
000
ASUS43 KDTX 260110
RWRMI
MICHIGAN HOURLY REGIONAL WEATHER ROUNDUP
NATIONAL WEATHER SERVICE DETROIT/PONTIAC MI
ISSUED BY NATIONAL WEATHER SERVICE GRAND RAPIDS MI
900 PM EDT FRI MAY 25 2018

NOTE: "FAIR" INDICATES FEW OR NO CLOUDS BELOW 12,000 FEET WITH NO
SIGNIFICANT WEATHER AND/OR OBSTRUCTION TO VISIBILITY.

MIZ047>049-052>055-059>063-066>070-074>076-081>083-260200-
SOUTHEAST LOWER MICHIGAN

CITY           SKY/WX    TMP DP  RH WIND       PRES   REMARKS
ADRIAN         FAIR      75  54  47 CALM      29.83S
ALMA           FAIR      77  59  55 CALM      29.80R
ANN ARBOR      FAIR      74  55  51 S6        29.81F
BAD AXE        FAIR      76  59  55 SW5       29.77F
DETROIT CITY   FAIR      78  51  38 S8        29.81S
DETROIT        FAIR      77  55  46 S8        29.82S
FLINT          FAIR      80  56  43 SW5       29.79S
GROSSE ILE     FAIR      68  60  77 S5        29.81S
HILLSDALE      FAIR      75  48  38 S5        29.83F
HOWELL         FAIR      78  55  44 S3        29.81S

CITY           SKY/WX    TMP DP  RH WIND       PRES   REMARKS
JACKSON        FAIR      77  56  48 S7        29.82S
LANSING        FAIR      78  63  59 NW5       29.81R
MASON          FAIR      79  57  46 CALM      29.81S
MONROE         FAIR      74  58  56 CALM      29.81S
MT. CLEMENS    PTCLDY    70  57  63 S8        29.81S
PONTIAC        FAIR      79  57  46 S6        29.80S
PORT HOPE        N/A     71  56  58 S6        29.75F
PORT HURON     FAIR      73  52  46 S6        29.80S
TRI CITIES     FAIR      78  60  53 W7        29.78R
YPSILANTI      FAIR      80  55  42 SW7       29.82S
$$
MIZ043>046-050>051-056>058-064>065-071>073-077>080-260200-
SOUTHWEST LOWER MICHIGAN

CITY           SKY/WX    TMP DP  RH WIND       PRES   REMARKS
BATTLE CREEK   FAIR      79  58  48 S6        29.81F
BENTON HARBOR  FAIR      77  63  61 CALM      29.77S
BIG RAPIDS     FAIR      75  58  55 SW3       29.78S
COLDWATER      FAIR      75  46  35 S5        29.81F
HOLLAND        FAIR      77  61  57 SE3       29.78S
GRAND RAPIDS   MOCLDY    78  61  55 S3        29.79S
KALAMAZOO      FAIR      81  58  45 SE5       29.80S
MARSHALL       FAIR      78  53  42 S3        29.80F
MOUNT PLEASANT FAIR      78  61  54 SW6       29.78R
MUSKEGON       MOCLDY    76  59  55 S6        29.77S
STURGIS        FAIR      78  51  38 S5        29.80F
$$
MIZ016>042-260200-
NORTHERN LOWER MICHIGAN

CITY           SKY/WX    TMP DP  RH WIND       PRES   REMARKS
ALPENA         FAIR      71  62  73 N7        29.74R
BEAVER ISLAND  FAIR      62  54  76 SW10      29.72F
BELLAIRE       FAIR      75  60  59 CALM      29.72S
CADILLAC       FAIR      74  58  57 SW7       29.78R
CHARLEVOIX     FAIR      65  56  72 CALM      29.74F
GAYLORD        FAIR      77  60  55 W6        29.75S
HOUGHTON LAKE  FAIR      78  55  44 SW8       29.77S
MANISTEE       FAIR      78  62  57 S6        29.73F
OSCODA         FAIR      69  61  75 SW5       29.73S
PELLSTON       FAIR      71  61  70 NE5       29.72F
TRAVERSE CITY  MOCLDY    82  61  48 SW5       29.70F
LUDINGTON      FAIR      76  61  60 S5        29.74F
$$
MIZ007>008-015-260200-
EASTERN UPPER MICHIGAN

CITY           SKY/WX    TMP DP  RH WIND       PRES   REMARKS
KINROSS        CLOUDY    66  64  93 N6        29.72F
MACKINAC ISLAN FAIR      62  62 100 N5        29.72S
NEWBERRY       FAIR      65  64  96 SE5       29.69F
S. S. MARIE    MOCLDY    68  62  81 CALM      29.71F
$$
MIZ004>006-011>014-085-260200-
CENTRAL UPPER MICHIGAN

CITY           SKY/WX    TMP DP  RH WIND       PRES   REMARKS
MANISTIQUE     MOCLDY    55  54  94 SE3       29.70S
ESCANABA       FAIR      61  55  81 E6        29.66F
MENOMINEE      TSTM      72  67  84 SW6       29.68S
SAWYER-GWINN   PTCLDY    77  64  65 SE9       29.67F
$$
MIZ001>003-009>011-084-260200-
WESTERN UPPER MICHIGAN

CITY           SKY/WX    TMP DP  RH WIND       PRES   REMARKS
IRON MOUNTAIN  TSTM      67  62  84 SW10G36   29.69R
HOUGHTON       FAIR      78  64  61 S5        29.62F
COPPER HARBOR    N/A     65  59  81 SW10      29.61F
IRONWOOD       FAIR      78  64  61 SW9       29.66S
$$

ABBREVIATIONS USED IN REMARKS
   TC - TEMPERATURE IN CELSIUS
  WCI - WIND CHILL INDEX
   HX - HEAT INDEX
  VSB - VISIBILITY




USA.gov is the U.S. government's official web portal to all federal, state and local government web resources and services.